{"data":{"norad_id":57855,"epoch":"2026-09-20T06:30:57.401280Z","epoch_age_seconds":154468,"freshness":"FRESH","line1":"1 57855U 23141R   26263.27149770  .00000173  00000+0  16261-4 0  9997","line2":"2 57855  53.1598  98.5868 0001112  93.2809 266.8320 15.34386804170145","mean_motion":15.34386804,"eccentricity":0.0001112,"inclination_deg":53.1598,"raan_deg":98.5868,"arg_perigee_deg":93.2809,"mean_anomaly_deg":266.832,"bstar":1.6261e-5,"rev_number":17014,"period_min":93.848565188781,"perigee_km":461.98175598498,"apogee_km":463.50316757728,"semimajor_km":6840.8794617811,"source":"CELESTRAK","updated_at":"2026-09-21T09:00:33.714273Z"}}